Weather History for Midland, MI

Change the Weather History Date:

Thursday, February 27, 2014

  Actual Average (KMBS) Record (KMBS)
Temperature  
Mean Temperature 0 °F 28 °F  
Max Temperature 11 °F 35 °F 50 °F (1998)
Min Temperature -10 °F 20 °F -3 °F (2014)
Degree Days  
Heating Degree Days 64    
Month to date heating degree days  
Since 1 July heating degree days  
Cooling Degree Days 0    
Month to date cooling degree days  
Year to date cooling degree days  
Moisture  
Dew Point -8 °F    
Average Humidity 58    
Maximum Humidity 88    
Minimum Humidity 38    
Precipitation  
Precipitation 0.00 in 0.07 in 0.71 in (1997)
Month to date precipitation 1.54  
Year to date precipitation 3.25  
Snow  
Snow 0.00 in - - ()
Month to date snowfall  
Since 1 July snowfall  
Snow Depth -    
Sea Level Pressure  
Sea Level Pressure 29.85 in    
Wind  
Wind Speed 9 mph (WNW)    
Max Wind Speed 28 mph    
Max Gust Speed 37 mph    
Visibility 9 miles    
Events Snow    
T = Trace of Precipitation, MM = Missing Value Source: NWS Daily Summary

Daily Weather History Graph

Daily Weather History Graph

Search for Another Location

Airport:

Trip Planner

Search our weather history database for the weather conditions in past years. The results will help you decide how hot, cold, wet, or windy it might be!

Date:

Astronomy

Feb. 27, 2014 Rise Set
Actual Time 7:16 AM EST 6:23 PM EST
Civil Twilight 6:48 AM EST 6:52 PM EST
Nautical Twilight 6:14 AM EST 7:25 PM EST
Astronomical Twilight 5:41 AM EST 7:58 PM EST
Moon 5:51 AM EST (2/27) 4:46 PM EST (2/27)
Length of Visible Light 12h 04m
Length of Day
11h 06m
Waning Crescent, 4% of the Moon is Illuminated
Feb 27
Waning Crescent
Mar 1
New
Mar 8
First Quarter
Mar 16
Full
Mar 23
Last Quarter

Hourly Weather History & Observations

Time (EST) Temp. Windchill Dew Point Humidity Pressure Visibility Wind Dir Wind Speed Gust Speed Precip Events Conditions
12:14 AM 10.8 °F 1.2 °F 6.8 °F 84% 29.51 in 5.0 mi SSW 5.8 mph - N/A Snow Light Snow
12:34 AM 9.9 °F 1.6 °F 6.1 °F 85% 29.50 in 7.0 mi South 4.6 mph - N/A Snow Light Snow
12:53 AM 9.5 °F 3.0 °F 5.9 °F 85% 29.49 in 10.0 mi SSW 3.5 mph - N/A   Scattered Clouds
1:14 AM 9.5 °F - 6.4 °F 87% 29.48 in 10.0 mi Calm Calm - N/A   Scattered Clouds
1:34 AM 8.4 °F - 5.2 °F 87% 29.48 in 10.0 mi Calm Calm - N/A   Scattered Clouds
1:53 AM 10.0 °F - 6.4 °F 85% 29.48 in 10.0 mi Calm Calm - N/A   Scattered Clouds
2:14 AM 10.9 °F 2.9 °F 6.8 °F 83% 29.48 in 10.0 mi WSW 4.6 mph - N/A   Mostly Cloudy
2:34 AM 11.3 °F 5.1 °F 6.6 °F 81% 29.47 in 10.0 mi West 3.5 mph - N/A   Scattered Clouds
2:53 AM 10.4 °F 4.0 °F 5.9 °F 82% 29.47 in 10.0 mi SW 3.5 mph - N/A   Clear
3:14 AM 10.4 °F 4.0 °F 6.4 °F 84% 29.46 in 10.0 mi SW 3.5 mph - N/A   Mostly Cloudy
3:33 AM 8.8 °F - 4.8 °F 84% 29.47 in 10.0 mi Calm Calm - N/A   Scattered Clouds
3:53 AM 5.5 °F -3.4 °F 2.7 °F 88% 29.47 in 10.0 mi SW 4.6 mph - N/A   Scattered Clouds
4:14 AM 10.8 °F 2.7 °F 7.2 °F 85% 29.47 in 10.0 mi West 4.6 mph - N/A   Mostly Cloudy
4:33 AM 10.0 °F 0.4 °F 5.9 °F 83% 29.48 in 10.0 mi WSW 5.8 mph - N/A   Scattered Clouds
4:53 AM 11.5 °F -1.1 °F 6.8 °F 81% 29.49 in 4.0 mi West 9.2 mph 18.4 mph N/A Snow Light Snow
5:14 AM 8.8 °F -10.3 °F 2.1 °F 74% 29.53 in 1.8 mi NW 19.6 mph 32.2 mph N/A Snow Light Snow
5:33 AM 8.1 °F -7.7 °F 0.3 °F 71% 29.55 in 7.0 mi NNW 12.7 mph 21.9 mph N/A   Scattered Clouds
5:54 AM 7.7 °F -10.7 °F -3.1 °F 61% 29.57 in 7.0 mi NNW 17.3 mph 24.2 mph N/A   Scattered Clouds
6:14 AM 7.2 °F -9.6 °F -5.4 °F 56% 29.59 in 7.0 mi NW 13.8 mph 27.6 mph N/A   Scattered Clouds
6:33 AM 6.4 °F -12.3 °F -7.1 °F 54% 29.61 in 10.0 mi NW 17.3 mph 27.6 mph N/A   Scattered Clouds
6:53 AM 5.5 °F -13.5 °F -7.8 °F 54% 29.64 in 7.0 mi NNW 17.3 mph 29.9 mph N/A   Scattered Clouds
7:14 AM 4.6 °F -11.3 °F -7.8 °F 57% 29.66 in 10.0 mi NW 11.5 mph 20.7 mph N/A   Scattered Clouds
7:33 AM 4.1 °F -11.1 °F -8.0 °F 57% 29.67 in 10.0 mi NW 10.4 mph 18.4 mph N/A   Scattered Clouds
7:54 AM 4.1 °F -14.1 °F -7.6 °F 58% 29.70 in 10.0 mi NW 15.0 mph 18.4 mph N/A   Clear
8:14 AM 4.1 °F -10.2 °F -4.9 °F 66% 29.72 in 7.0 mi NW 9.2 mph 23.0 mph N/A   Mostly Cloudy
8:19 AM 4.1 °F -13.4 °F -4.9 °F 66% 29.73 in 7.0 mi NNW 13.8 mph 23.0 mph N/A   Mostly Cloudy
8:54 AM 3.7 °F -14.6 °F -6.2 °F 64% 29.76 in 3.0 mi NW 15.0 mph 25.3 mph N/A   Haze
9:13 AM 4.8 °F -12.5 °F -7.8 °F 56% 29.78 in 5.0 mi NW 13.8 mph 25.3 mph N/A   Haze
9:34 AM 4.1 °F -18.3 °F -11.0 °F 50% 29.79 in 2.0 mi NW 24.2 mph 36.8 mph N/A   Haze
9:54 AM 5.2 °F -15.0 °F -12.6 °F 44% 29.81 in 7.0 mi NW 19.6 mph 31.1 mph N/A   Clear
10:13 AM 5.0 °F -18.3 °F -13.7 °F 42% 29.82 in 3.0 mi WNW 27.6 mph 36.8 mph N/A   Haze
10:34 AM 5.4 °F -12.5 °F -13.7 °F 41% 29.84 in 4.0 mi NW 15.0 mph 28.8 mph N/A   Haze
10:54 AM 5.5 °F -15.5 °F -13.2 °F 42% 29.85 in 7.0 mi NW 21.9 mph 31.1 mph N/A   Clear
11:13 AM 5.9 °F -13.5 °F -12.1 °F 44% 29.87 in 10.0 mi WNW 18.4 mph 25.3 mph N/A   Scattered Clouds
11:34 AM 5.7 °F -13.8 °F -12.8 °F 42% 29.89 in 10.0 mi NW 18.4 mph 29.9 mph N/A   Scattered Clouds
11:54 AM 6.4 °F -14.7 °F -12.3 °F 42% 29.91 in 10.0 mi NW 23.0 mph 33.4 mph N/A   Scattered Clouds
12:13 PM 7.0 °F -12.6 °F -11.2 °F 43% 29.92 in 10.0 mi WNW 19.6 mph 26.5 mph N/A   Scattered Clouds
12:34 PM 7.2 °F -11.4 °F -11.9 °F 42% 29.93 in 10.0 mi WNW 17.3 mph 24.2 mph N/A   Mostly Cloudy
12:53 PM 6.6 °F -12.6 °F -11.2 °F 44% 29.94 in 10.0 mi WNW 18.4 mph 26.5 mph N/A   Scattered Clouds
1:14 PM 7.5 °F -11.4 °F -11.9 °F 41% 29.95 in 10.0 mi West 18.4 mph 26.5 mph N/A   Mostly Cloudy
1:34 PM 7.9 °F -11.0 °F -11.0 °F 42% 29.95 in 10.0 mi NW 18.4 mph 25.3 mph N/A   Mostly Cloudy
1:53 PM 7.0 °F -11.0 °F -13.0 °F 40% 29.96 in 10.0 mi WNW 16.1 mph 28.8 mph N/A   Scattered Clouds
2:14 PM 7.0 °F -11.6 °F -13.0 °F 40% 29.97 in 10.0 mi WNW 17.3 mph 25.3 mph N/A   Clear
2:33 PM 7.2 °F -10.8 °F -13.4 °F 39% 29.98 in 10.0 mi WNW 16.1 mph 24.2 mph N/A   Scattered Clouds
2:54 PM 7.0 °F -11.6 °F -13.7 °F 38% 29.99 in 10.0 mi WNW 17.3 mph 24.2 mph N/A   Scattered Clouds
3:14 PM 7.2 °F -10.2 °F -13.7 °F 38% 30.00 in 10.0 mi WNW 15.0 mph 23.0 mph N/A   Clear
3:33 PM 7.2 °F -9.6 °F -13.0 °F 39% 30.02 in 10.0 mi WNW 13.8 mph 25.3 mph N/A   Scattered Clouds
3:54 PM 7.0 °F -11.0 °F -13.2 °F 39% 30.03 in 10.0 mi WNW 16.1 mph 24.2 mph N/A   Scattered Clouds
4:13 PM 7.2 °F -9.6 °F -13.9 °F 38% 30.04 in 10.0 mi NW 13.8 mph 21.9 mph N/A   Clear
4:34 PM 7.3 °F -7.9 °F -13.0 °F 39% 30.05 in 10.0 mi WNW 11.5 mph 20.7 mph N/A   Clear
4:54 PM 7.0 °F -9.8 °F -13.4 °F 39% 30.06 in 10.0 mi NNW 13.8 mph 18.4 mph N/A   Clear
5:13 PM 6.3 °F -10.7 °F -13.0 °F 41% 30.07 in 10.0 mi NW 13.8 mph 20.7 mph N/A   Scattered Clouds
5:34 PM 5.9 °F -10.5 °F -14.3 °F 39% 30.08 in 10.0 mi WNW 12.7 mph 17.3 mph N/A   Scattered Clouds
5:54 PM 5.5 °F -9.3 °F -14.3 °F 40% 30.09 in 10.0 mi NW 10.4 mph - N/A   Clear
6:14 PM 4.6 °F -7.4 °F -14.1 °F 42% 30.10 in 10.0 mi NW 6.9 mph - N/A   Clear
6:34 PM 4.1 °F -5.1 °F -14.8 °F 41% 30.11 in 10.0 mi NW 4.6 mph - N/A   Clear
6:53 PM 3.2 °F -4.2 °F -15.0 °F 43% 30.12 in 10.0 mi WNW 3.5 mph - N/A   Clear
7:14 PM 2.7 °F -4.8 °F -15.0 °F 44% 30.13 in 10.0 mi WNW 3.5 mph - N/A   Clear
7:33 PM 1.0 °F - -15.3 °F 46% 30.14 in 10.0 mi Calm Calm - N/A   Clear
7:53 PM -0.0 °F - -15.9 °F 47% 30.14 in 10.0 mi Calm Calm - N/A   Clear
8:14 PM -2.6 °F - -15.3 °F 55% 30.15 in 10.0 mi Calm Calm - N/A   Clear
8:33 PM -3.3 °F - -15.5 °F 56% 30.16 in 10.0 mi Calm Calm - N/A   Clear
8:53 PM -4.5 °F - -15.9 °F 58% 30.17 in 10.0 mi Calm Calm - N/A   Clear
9:14 PM -5.6 °F - -15.5 °F 62% 30.17 in 10.0 mi Calm Calm - N/A   Clear
9:33 PM -6.0 °F - -15.3 °F 64% 30.18 in 10.0 mi Calm Calm - N/A   Clear
9:54 PM -6.5 °F - -16.2 °F 63% 30.18 in 10.0 mi Calm Calm - N/A   Clear
10:14 PM -8.1 °F - -16.6 °F 67% 30.19 in 10.0 mi Calm Calm - N/A   Clear
10:33 PM -8.5 °F - -16.2 °F 69% 30.20 in 10.0 mi Calm Calm - N/A   Clear
10:54 PM -10.3 °F - -17.5 °F 71% 30.20 in 10.0 mi Calm Calm - N/A   Clear
11:13 PM -9.9 °F - -16.8 °F 72% 30.20 in 10.0 mi Calm Calm - N/A   Clear
11:33 PM -10.7 °F - -17.3 °F 72% 30.21 in 10.0 mi Calm Calm - N/A   Clear
11:54 PM -10.8 °F - -17.5 °F 72% 30.21 in 10.0 mi Calm Calm - N/A   Clear